GFSNGP_prec_cthk_000.txt.gz
RH
66 66 72 72 66 62 71 69 84 53 57 53 55 57 62 65 68 72 74 81 80 79 74 74 73 76 77 79 86 91 92 86 87 83 78 73 69 61 50 41 35 32 29 25
74 69 72 71 60 55 65 65 64 64 58 59 63 69 72 72 75 76 80 84 86 84 77 76 77 80 82 86 93 93 86 87 83 79 76 75 67 49 38 31 27 25 25 26
76 68 76 79 61 55 57 62 63 69 66 64 66 72 76 76 84 86 87 90 94 84 79 78 79 85 88 92 92 87 87 83 80 79 77 72 55 37 28 24 23 25 27 32
81 81 84 56 48 52 55 56 58 63 67 73 73 75 86 85 87 90 94 97 93 88 85 84 86 89 95 94 93 89 84 81 81 81 72 61 40 27 23 25 27 28 33 38
86 75 57 54 50 57 60 59 63 70 74 77 85 83 80 88 92 94 98 95 90 93 93 94 95 98 96 93 90 86 82 81 81 78 63 42 28 23 26 30 30 34 39 55
89 87 73 55 56 60 64 70 77 79 84 90 91 92 80 87 92 97 97 96 91 93 93 98 98 97 93 90 88 83 81 77 76 57 34 29 24 25 33 33 35 40 55 71
89 93 78 63 68 70 84 78 77 85 86 86 89 93 95 91 96 96 90 90 93 94 94 97 96 93 92 89 83 79 76 70 46 33 30 26 27 34 36 37 40 55 70 78
96 95 86 69 74 83 80 78 81 78 86 86 89 95 91 94 97 91 89 89 88 88 94 94 93 88 86 82 77 75 72 47 33 31 29 29 35 38 39 42 53 70 77 81
78 71 68 75 81 85 82 85 83 90 86 91 96 92 92 94 91 89 89 88 89 94 91 90 85 83 79 75 73 65 45 33 32 31 31 37 40 41 42 53 69 78 81 85
81 75 81 85 85 86 83 89 90 93 94 96 94 96 95 91 89 84 88 94 95 93 88 85 82 77 74 69 59 45 32 31 33 34 35 43 44 42 48 64 78 81 86 93
88 83 71 82 85 86 87 88 91 92 96 99 97 89 85 83 82 88 96 98 96 92 88 85 80 75 68 57 42 33 31 34 37 38 41 45 45 45 55 76 82 87 95 95
83 74 83 72 80 86 85 86 89 94 91 91 86 81 80 82 89 96 97 97 95 90 86 83 78 68 56 41 33 32 34 39 39 39 46 49 45 45 69 84 88 95 98 97
80 82 81 78 75 81 87 89 88 87 80 77 78 80 83 90 95 96 94 95 90 87 83 76 66 56 40 34 32 33 39 40 39 45 54 48 49 49 71 88 87 96 98 98
80 85 80 81 84 82 81 72 67 68 70 72 78 83 89 94 96 95 92 88 85 79 73 63 52 40 35 33 32 38 41 39 41 52 53 53 47 53 82 91 94 97 98 98
78 84 87 83 79 70 64 63 60 64 72 76 85 91 93 95 94 89 85 82 76 67 57 49 40 36 34 32 37 41 42 41 44 50 55 53 43 62 92 95 97 98 98 98
84 82 81 73 69 66 62 59 65 70 76 87 94 94 94 94 89 86 81 70 61 54 47 42 38 33 33 37 41 44 45 44 50 54 57 48 45 61 95 96 98 99 98 98
79 68 69 67 65 61 64 71 76 82 91 97 97 97 94 90 85 77 65 60 52 46 43 40 35 35 39 42 47 50 49 53 56 64 58 41 46 59 90 97 97 99 98 98
73 72 70 67 66 67 71 79 85 93 97 96 94 91 86 79 69 64 59 50 47 44 41 41 41 44 45 51 55 53 48 57 66 70 60 39 44 59 82 98 98 98 98 98
72 70 63 62 66 67 70 79 87 90 89 88 84 76 69 66 63 57 51 47 42 42 47 45 47 50 55 61 61 55 53 65 72 75 64 42 43 57 74 96 98 98 98 98
70 64 59 65 67 66 71 83 85 83 79 73 71 69 66 63 57 51 45 41 43 47 50 48 49 53 62 70 68 62 64 74 75 78 66 51 45 59 69 84 99 99 99 98
62 58 58 67 74 79 83 78 79 75 72 71 69 66 61 56 52 45 43 43 46 51 53 52 52 56 69 77 76 72 79 82 80 76 69 61 50 61 68 76 86 98 98 98
58 60 69 78 85 83 76 82 79 74 71 70 67 63 59 53 46 43 43 47 52 53 50 55 60 63 75 86 84 84 89 86 83 75 70 66 59 65 67 68 73 82 98 98
69 79 85 94 91 82 82 84 78 75 73 70 65 60 49 44 40 39 43 47 46 47 55 65 68 71 84 90 88 91 95 89 81 72 68 63 61 69 72 70 69 67 71 81
88 95 98 97 89 83 89 81 78 75 71 66 56 45 40 36 36 38 38 39 43 51 64 70 72 78 89 92 88 95 98 90 83 73 69 65 63 71 75 73 71 67 63 60
97 98 98 96 86 91 84 81 78 73 67 53 44 37 36 36 36 36 40 44 49 62 71 75 79 84 93 92 86 96 98 92 85 75 73 72 66 73 75 72 69 64 59 56
98 98 98 93 93 87 82 79 75 66 54 44 35 33 34 35 36 40 45 48 58 72 78 81 84 91 93 88 87 97 98 93 88 81 78 73 70 73 75 72 69 65 60 55
98 98 98 94 87 83 78 74 62 55 46 33 31 32 32 36 44 46 49 54 66 76 81 86 89 88 86 90 93 98 98 96 93 88 81 76 72 71 75 74 70 67 62 56

GFSNGP_prec_cthk_003.txt.gz
RH
63 64 67 65 55 52 58 58 67 48 58 50 55 58 62 65 65 68 72 76 77 79 82 85 81 74 73 75 75 78 82 88 94 93 92 93 90 88 86 83 71 56 38 31
73 67 67 66 56 53 55 54 56 56 52 59 59 64 66 69 71 77 75 74 78 83 87 84 79 77 76 75 80 87 93 96 94 93 93 91 90 88 86 72 54 31 30 31
80 68 75 78 65 60 61 62 62 65 63 60 63 69 76 75 79 77 80 85 84 89 86 86 81 77 76 82 89 96 95 94 93 92 90 89 90 85 68 47 31 29 30 34
87 87 86 62 55 58 60 64 61 62 62 65 70 75 83 82 84 88 93 86 87 85 86 84 84 82 85 92 96 96 96 93 91 90 89 87 75 51 33 30 27 30 36 40
89 80 68 67 60 65 65 61 60 64 72 80 77 74 78 90 95 95 92 95 90 86 87 85 89 91 92 96 96 93 90 90 90 87 81 65 37 29 28 26 30 36 40 44
93 92 85 61 60 65 65 64 73 77 80 87 92 93 88 90 94 91 91 93 88 85 83 85 86 87 92 90 90 90 90 87 82 77 64 35 29 27 26 32 37 38 40 49
89 93 72 59 65 66 77 77 80 87 89 90 90 93 93 92 89 92 89 86 84 83 87 81 87 91 88 90 91 85 81 77 73 58 33 29 27 28 32 37 37 41 49 65
98 97 89 73 76 91 90 80 85 85 90 90 92 94 92 94 92 88 85 85 76 75 81 87 93 94 90 87 82 79 76 68 49 32 30 29 30 33 37 40 44 50 64 79
82 77 71 75 78 84 80 79 83 92 87 93 92 91 91 88 86 82 81 72 75 81 87 92 92 89 87 85 80 72 61 47 32 31 31 32 34 37 42 44 49 61 80 84
81 72 79 79 83 87 90 92 86 88 90 90 90 91 87 87 77 75 73 77 81 86 91 93 90 88 85 79 70 59 47 34 32 32 32 35 38 45 46 49 58 75 86 89
81 82 84 83 91 87 88 90 88 89 90 90 89 84 84 75 74 75 76 82 87 93 94 91 88 86 80 69 57 46 36 33 33 34 36 36 43 50 51 56 69 83 92 94
96 86 90 79 84 84 86 88 90 89 83 77 84 76 74 74 75 76 84 90 95 94 91 89 86 79 68 57 47 35 33 35 36 35 36 39 47 54 54 59 77 90 96 96
87 88 86 83 78 83 89 88 82 77 72 66 66 71 70 74 77 82 91 94 93 90 87 83 76 67 57 47 38 34 31 33 35 38 39 42 52 57 44 65 86 93 97 98
79 81 79 79 84 84 81 75 70 66 65 60 62 65 71 79 85 92 96 92 89 85 81 72 63 57 49 41 34 31 33 36 39 40 43 48 54 53 49 79 91 94 98 97
75 78 89 85 81 76 73 62 56 54 56 58 62 70 79 88 93 94 92 88 83 75 66 59 52 51 43 35 33 36 38 43 41 41 48 54 62 49 52 87 96 98 98 98
84 87 84 79 73 69 62 57 56 53 56 60 68 80 92 96 96 94 89 81 71 69 56 52 48 41 38 37 40 44 48 46 46 51 53 65 62 46 54 87 97 98 98 98
85 79 76 73 72 64 64 65 63 60 64 73 81 93 93 91 90 85 76 70 65 55 51 46 43 44 41 44 47 55 56 56 54 57 61 69 63 44 54 85 98 98 98 98
73 72 74 75 70 68 63 61 56 59 71 81 89 90 88 82 76 71 71 64 55 49 42 43 45 43 43 50 56 65 67 62 62 64 69 73 61 46 54 80 99 98 99 98
68 70 75 75 64 56 57 56 60 70 77 83 79 73 73 73 72 70 62 54 45 43 48 46 47 46 45 51 61 73 74 70 72 74 76 73 67 50 58 77 99 99 99 98
68 70 57 48 50 59 65 76 77 76 81 75 72 72 72 71 67 60 52 44 43 45 46 49 49 44 50 58 71 82 81 79 83 84 81 73 65 54 61 77 92 99 99 99
42 42 43 50 58 69 82 86 85 80 82 76 74 73 70 66 59 50 44 45 47 45 48 47 48 59 64 68 80 88 85 88 90 88 82 71 67 59 70 72 82 95 99 99
40 45 50 58 64 81 92 90 83 86 81 78 78 73 67 57 46 39 37 39 41 40 41 45 57 68 72 78 88 90 88 94 96 89 80 70 66 64 76 73 76 77 92 99
49 63 75 75 79 97 98 88 90 85 81 80 74 65 52 42 35 32 33 34 32 36 42 52 65 72 75 82 91 88 89 98 94 89 81 73 69 70 80 77 75 71 70 81
52 74 86 89 98 98 93 90 90 83 82 76 62 50 40 31 30 34 32 33 37 41 49 60 68 75 79 89 91 86 92 98 94 91 82 73 74 75 83 80 77 72 67 67
63 84 93 98 98 97 90 91 86 84 77 63 49 39 29 29 30 30 33 38 42 48 58 67 74 77 85 90 87 85 94 98 96 93 88 82 78 79 84 81 77 74 69 63
89 96 98 98 98 95 95 89 85 80 64 52 43 29 27 28 31 38 42 46 48 55 65 70 75 80 81 83 87 91 97 98 97 92 90 85 79 78 86 85 80 78 70 63
97 97 98 98 97 96 91 85 78 64 52 47 34 28 29 31 34 39 42 47 56 64 68 71 71 75 79 85 92 98 98 98 98 97 92 86 81 78 81 84 83 75 70 65

GFSNGP_prec_cthk_006.txt.gz
RH
64 61 66 66 59 56 54 55 63 52 60 53 60 61 63 63 64 69 70 73 77 78 79 79 79 77 77 75 71 69 72 71 77 82 87 95 96 94 92 91 91 85 67 50
71 59 64 65 55 52 54 57 58 57 56 56 55 58 62 66 69 73 76 77 80 83 83 83 81 83 78 77 73 74 73 81 89 92 93 95 95 92 91 88 72 51 33 29
77 69 73 75 62 60 65 64 65 65 56 57 60 67 73 75 78 76 82 84 85 82 80 82 81 82 83 78 73 79 86 92 96 97 96 94 92 92 85 67 41 29 27 27
89 86 85 64 56 57 62 65 66 65 57 63 67 72 79 83 86 84 85 86 81 80 82 83 82 81 77 78 88 89 94 97 97 95 93 92 87 82 61 37 29 26 28 35
89 82 69 70 57 68 68 65 67 72 79 86 83 81 81 90 92 95 91 86 83 83 81 77 77 71 78 85 89 93 94 92 91 91 85 82 74 48 32 29 27 31 36 37
87 89 82 60 58 64 70 72 84 86 86 92 88 91 83 90 89 88 89 86 84 80 77 71 68 74 78 80 83 86 91 88 85 81 78 62 43 31 28 29 33 35 37 41
85 87 71 60 68 76 90 95 89 91 96 92 93 93 89 88 85 92 87 81 80 77 70 68 75 76 79 82 86 93 86 85 81 72 56 40 32 30 31 33 35 39 44 48
90 93 82 74 78 91 86 85 91 86 89 91 92 92 87 88 89 88 82 78 76 73 72 76 78 82 87 87 86 87 87 82 67 52 41 32 31 31 32 35 39 44 45 54
75 78 60 66 80 81 88 91 87 94 89 93 87 83 84 84 84 82 77 73 74 73 76 80 83 86 89 89 89 86 76 62 50 40 33 32 34 33 35 39 44 46 54 74
75 60 65 70 75 84 84 90 93 95 91 85 86 78 75 77 79 74 70 70 70 74 82 86 90 89 90 88 84 69 58 49 41 34 33 34 34 36 38 43 47 52 68 91
71 66 71 70 80 86 88 92 95 92 81 79 80 74 69 67 65 66 68 71 72 80 86 92 90 90 87 79 68 56 48 44 36 34 35 34 36 39 44 48 51 56 89 95
79 73 85 69 68 82 86 97 90 82 78 72 72 66 65 65 67 66 66 69 79 86 90 90 89 87 81 69 58 51 44 35 34 35 37 38 39 40 47 49 46 71 94 98
81 72 68 74 79 82 88 82 83 80 81 74 65 62 62 63 67 64 69 81 88 89 90 89 83 76 68 57 51 43 34 34 37 41 42 42 43 44 47 47 47 85 97 98
71 80 81 79 83 81 77 79 83 84 76 68 66 60 57 58 63 70 81 91 92 91 90 80 72 63 57 51 42 36 35 38 44 47 43 46 48 54 60 49 52 92 98 98
76 82 84 80 76 77 80 84 78 74 68 69 68 54 52 63 74 88 95 93 89 83 75 71 61 54 49 42 40 41 43 46 52 53 50 51 58 61 62 44 59 96 97 97
74 76 78 75 75 69 66 66 72 71 63 60 41 49 64 78 87 94 92 85 78 75 72 61 53 46 42 41 43 45 53 57 64 63 58 59 63 65 63 45 64 98 98 98
68 73 77 74 77 71 71 68 64 57 47 38 47 64 73 79 82 79 77 76 75 70 59 49 44 42 43 43 45 46 54 65 74 70 67 68 72 67 63 47 68 98 98 98
69 71 70 74 74 68 58 55 47 44 47 50 63 73 72 72 73 73 75 73 65 54 46 47 45 44 44 43 44 53 62 74 82 77 78 77 78 75 64 51 73 99 98 98
64 63 55 50 49 41 36 39 44 50 59 70 71 77 75 73 74 74 70 59 51 45 43 45 46 46 45 44 56 64 72 87 89 84 84 85 81 74 67 55 79 98 99 98
38 32 29 30 31 39 43 49 59 64 74 82 83 82 77 77 75 68 56 49 44 43 45 45 44 45 46 60 69 73 85 91 88 90 88 86 78 71 69 66 83 90 98 98
30 29 28 30 34 41 50 64 77 80 93 87 89 81 80 78 68 54 42 35 37 36 35 36 40 49 61 68 71 78 89 90 88 95 90 85 76 73 71 80 85 79 93 98
33 32 34 37 41 45 58 83 88 96 91 93 84 83 79 66 51 40 35 32 31 30 32 36 45 56 66 72 76 84 90 87 94 95 91 86 77 74 75 84 83 76 77 94
32 35 40 43 48 57 77 91 96 96 95 88 85 81 66 49 37 29 29 29 28 32 35 43 54 61 68 74 82 88 86 88 97 96 92 87 79 77 83 86 83 76 71 76
38 39 44 47 58 75 89 95 98 96 92 87 84 69 50 37 29 32 31 30 34 36 40 51 58 65 70 75 82 83 84 91 97 98 94 91 83 81 86 86 83 78 72 70
48 49 48 53 74 94 98 98 97 94 89 86 73 54 39 31 25 26 30 35 38 42 50 56 61 65 69 72 76 83 90 96 98 98 98 93 87 80 87 89 84 79 74 68
53 47 50 65 94 98 98 97 96 93 88 80 61 48 39 28 25 29 33 36 39 43 48 56 62 65 69 74 80 87 97 98 98 98 98 95 88 80 82 87 84 81 76 71
57 55 62 87 97 98 98 98 95 92 81 67 57 45 36 28 28 32 38 40 42 45 48 53 61 68 74 80 83 84 95 97 98 98 98 98 93 83 77 79 82 80 77 73

GFSNGP_prec_cthk_009.txt.gz
RH
55 60 64 64 58 54 63 63 71 58 67 60 69 71 67 68 70 69 72 72 73 73 71 68 67 69 73 75 72 69 66 66 68 72 73 76 79 85 89 88 89 87 77 62
63 56 65 69 56 56 65 68 63 63 65 71 70 73 71 72 72 75 78 77 77 75 73 71 70 71 73 75 72 72 74 76 77 82 86 88 93 93 95 92 88 75 54 33
70 69 76 74 52 59 65 63 64 71 72 74 79 80 81 85 87 85 83 81 81 79 75 70 70 72 72 71 72 71 80 85 89 92 97 96 95 93 89 81 62 40 29 27
82 84 87 58 54 53 58 64 67 68 74 80 81 79 87 87 88 84 83 82 78 75 69 66 70 73 70 68 71 75 80 86 89 93 93 91 89 83 70 51 37 29 27 30
83 84 70 59 58 62 65 62 74 77 80 85 89 83 75 75 85 88 86 80 76 70 69 68 72 69 66 69 68 70 77 84 86 88 87 85 77 60 47 37 29 29 31 35
83 85 78 57 59 67 71 72 79 87 87 84 88 92 77 81 82 81 80 79 74 68 65 68 72 68 73 72 72 76 83 89 90 88 86 73 55 46 37 32 32 32 33 36
82 82 72 58 70 68 78 75 75 81 83 84 90 91 92 81 73 72 76 73 67 66 68 69 71 72 79 77 78 85 91 92 92 87 66 52 46 39 33 32 32 32 36 42
89 88 82 68 65 75 74 73 81 74 79 85 90 91 90 81 75 71 67 64 70 66 66 69 72 76 78 81 86 92 91 88 75 60 50 47 40 35 33 32 31 34 37 42
83 75 63 69 75 70 81 81 75 84 86 88 89 90 82 76 74 69 67 64 63 60 62 70 74 81 85 92 93 89 84 66 56 50 47 40 36 34 33 33 35 39 41 43
83 70 66 74 70 73 73 77 81 84 94 94 87 80 77 79 72 72 72 64 63 64 62 69 75 82 90 91 88 79 63 56 53 49 42 37 36 37 37 39 42 42 45 53
78 77 75 70 77 78 79 83 87 83 81 78 79 74 75 67 63 70 73 70 74 65 68 79 85 92 90 84 75 64 59 55 49 43 39 38 39 40 42 45 46 46 49 77
85 76 84 74 76 84 87 85 78 76 77 78 74 72 62 59 65 75 78 72 73 74 82 90 94 93 88 81 69 62 54 49 44 41 41 43 42 42 46 51 51 48 54 90
90 82 79 80 84 90 81 72 78 78 70 65 64 59 61 69 76 81 73 71 73 84 92 94 88 83 75 63 58 52 49 45 43 45 49 50 49 49 48 53 52 49 61 96
76 80 84 84 80 76 75 82 75 68 69 69 64 65 67 72 70 66 70 75 81 88 87 83 81 74 65 58 52 47 43 44 42 50 59 62 60 58 59 57 55 47 74 98
78 77 78 74 72 72 74 73 73 71 65 63 59 59 60 54 51 60 72 79 83 78 79 79 72 62 56 50 43 43 45 43 46 55 64 72 68 68 65 64 58 50 89 98
66 65 64 71 70 75 67 60 55 57 57 57 53 50 44 49 58 65 71 75 75 77 73 66 58 54 49 46 44 44 44 51 59 65 78 79 76 74 72 69 58 55 96 98
61 67 74 64 57 52 52 49 46 43 44 46 51 50 52 58 66 73 74 75 75 70 61 51 51 49 48 48 42 42 52 64 69 81 88 83 81 80 78 72 57 63 98 98
75 75 70 58 53 46 38 39 40 38 41 50 63 71 62 69 80 77 77 74 68 57 47 45 45 45 44 43 44 54 64 68 81 88 87 86 84 84 76 69 57 79 99 98
72 66 51 45 39 36 36 36 37 40 44 55 71 79 76 86 81 80 75 68 53 41 38 38 36 39 41 46 57 66 68 76 88 87 89 90 88 80 74 71 63 87 97 99
64 58 52 41 33 36 38 35 41 44 51 66 84 83 92 86 84 78 67 46 38 35 34 32 34 37 42 54 65 69 73 85 87 89 94 92 87 78 76 75 79 82 85 98
54 44 40 39 37 33 35 40 45 51 60 77 90 94 90 86 81 65 42 32 32 30 28 32 36 41 51 58 64 72 83 85 85 94 96 94 89 79 78 85 86 80 77 93
44 42 39 39 41 39 39 40 49 56 73 90 96 94 89 84 70 44 34 30 29 31 35 36 43 50 56 62 68 76 81 82 86 95 97 95 89 81 82 88 87 83 74 80
38 37 39 41 42 46 42 44 56 69 94 97 96 91 87 76 51 36 29 30 33 36 39 43 48 51 56 61 65 71 78 85 90 97 99 97 92 83 85 90 86 81 76 73
43 43 46 47 50 53 48 50 63 89 98 97 93 90 83 60 40 33 30 32 37 38 41 45 48 53 55 60 66 74 81 90 96 97 99 99 95 86 84 92 90 85 76 72
48 49 51 53 59 69 60 67 81 99 98 95 91 88 74 50 36 30 27 34 38 41 44 47 51 54 57 61 67 75 80 92 96 97 98 99 97 91 82 89 91 85 81 76
57 59 64 72 76 76 68 84 99 98 98 95 91 84 66 50 38 33 31 35 39 41 45 48 51 53 53 57 64 74 80 84 94 98 98 99 99 94 84 82 87 84 80 77
68 75 88 87 81 75 88 98 98 98 98 96 89 79 63 49 39 38 37 38 38 40 43 47 51 55 57 58 61 67 79 85 88 95 98 98 99 98 90 83 82 81 81 78

GFSNGP_prec_cthk_012.txt.gz
RH
55 56 58 54 57 59 64 60 75 59 62 59 66 69 72 73 74 73 74 78 80 75 74 77 67 63 58 57 56 56 58 60 64 66 72 75 79 82 85 92 92 86 82 73
54 59 66 61 60 60 63 62 61 62 62 67 72 77 79 79 77 74 80 83 80 76 71 68 64 59 58 58 57 56 60 67 71 81 82 86 89 93 94 90 86 81 71 59
64 72 74 66 57 55 56 53 58 64 64 71 73 78 83 80 79 78 83 86 80 71 68 64 58 61 61 56 56 56 63 70 77 84 86 88 89 89 89 85 76 62 49 41
81 83 87 54 53 52 57 58 59 64 70 77 75 75 77 78 85 81 81 74 68 70 65 62 64 60 57 56 57 59 64 69 76 78 83 86 86 86 78 65 52 45 38 30
84 87 73 61 57 61 67 68 65 71 69 70 70 66 69 77 83 83 82 76 66 67 71 74 73 71 67 72 70 66 70 76 80 87 90 87 87 73 58 49 43 36 30 28
83 89 84 61 61 64 72 70 69 66 68 71 76 81 75 80 85 81 79 71 71 76 75 79 75 69 74 80 86 75 76 85 92 93 92 82 67 56 50 44 37 32 29 29
86 85 75 62 64 71 79 71 71 74 75 78 84 89 90 92 79 75 73 80 79 67 68 74 68 67 81 85 85 80 86 94 92 86 75 62 56 51 45 40 33 31 29 31
89 91 87 72 79 86 81 76 77 71 78 81 83 87 91 82 79 69 61 55 56 58 62 66 72 83 89 85 86 87 91 89 81 67 58 56 52 47 42 37 35 33 34 32
80 76 72 78 81 80 83 79 76 83 85 82 83 82 80 73 64 58 56 56 57 63 69 71 77 74 74 83 89 91 89 78 66 59 57 53 48 43 40 39 38 36 35 35
87 70 75 80 78 81 79 82 84 83 80 83 85 77 68 65 58 57 57 59 68 71 79 82 74 73 85 94 90 89 79 68 59 56 52 48 45 42 45 44 41 40 38 40
86 82 80 81 85 83 89 90 82 80 80 77 72 64 65 57 53 50 53 61 70 77 85 85 83 89 92 88 87 81 68 58 52 50 50 46 46 49 53 52 50 46 43 47
83 86 91 78 85 86 86 82 88 87 81 72 66 64 59 46 46 54 65 69 69 74 79 84 88 91 90 86 75 64 57 50 46 45 47 47 49 56 63 63 58 51 52 52
89 93 90 91 90 87 84 85 82 79 69 63 58 54 49 49 57 58 62 58 65 71 78 86 87 86 78 69 60 53 45 41 46 46 48 55 58 65 68 68 65 55 54 57
91 91 87 92 85 78 88 75 63 57 55 59 54 54 54 55 53 57 50 58 68 80 83 81 83 75 65 57 49 44 41 43 42 50 60 64 72 79 76 68 63 63 57 62
85 73 75 74 75 68 62 57 54 56 58 54 53 55 53 49 51 57 58 63 74 80 80 78 71 63 53 47 44 42 38 41 52 62 68 80 84 82 80 75 71 66 60 78
68 67 63 64 59 58 61 59 57 54 54 49 48 48 43 47 55 62 68 75 80 81 74 67 56 45 45 43 43 41 43 54 61 67 80 83 84 82 82 79 76 66 63 96
54 64 76 82 71 62 69 63 57 55 47 47 40 41 48 57 67 73 83 82 82 74 66 50 42 41 41 41 41 44 55 64 67 77 83 82 84 87 84 78 73 65 80 98
75 78 68 66 69 59 52 49 41 35 37 38 41 45 54 63 74 88 87 83 75 68 48 38 35 33 34 39 44 55 61 66 74 81 82 87 90 88 81 78 72 75 84 98
67 68 74 72 68 61 53 45 39 39 42 42 44 50 59 69 86 90 87 80 68 42 32 28 29 31 35 43 53 60 66 74 79 79 84 90 91 87 83 80 83 82 83 93
66 66 67 66 58 46 43 40 43 41 41 43 48 57 66 84 92 90 83 70 46 32 24 28 31 36 44 49 55 62 69 74 77 79 86 91 93 87 83 84 89 86 80 87
57 55 49 42 38 34 35 42 47 46 45 47 53 62 76 96 93 88 75 53 37 28 31 35 39 44 48 52 55 60 65 71 78 85 89 93 94 87 83 88 88 86 79 82
42 38 38 38 38 37 37 45 48 49 50 57 62 68 97 96 91 83 66 42 32 30 34 37 42 48 50 53 55 60 66 74 83 88 92 95 95 89 84 90 89 84 79 80
41 42 42 42 43 44 44 47 53 58 61 69 73 89 97 95 88 75 52 38 35 34 35 38 43 49 53 56 60 63 68 74 85 90 92 94 95 92 84 89 91 89 81 78
42 40 41 44 51 55 55 61 70 73 77 80 90 98 97 93 84 66 48 37 39 35 36 39 43 47 52 58 61 64 68 74 78 88 91 93 95 94 88 85 91 91 88 80
48 51 54 59 63 62 72 80 81 78 86 97 98 97 96 92 79 57 40 37 40 39 39 40 43 44 46 54 61 65 68 72 77 81 89 93 93 95 90 85 86 87 82 79
58 62 64 69 72 77 83 79 76 93 98 98 98 97 95 86 75 55 41 40 43 43 42 43 46 45 45 50 59 66 71 75 78 81 83 90 93 93 92 87 85 83 80 78
62 65 72 72 72 79 80 76 91 98 98 98 97 95 89 82 72 57 47 45 44 45 46 48 47 44 45 49 56 66 71 75 79 83 85 87 93 95 95 90 87 86 87 86

GFSNGP_prec_cthk_015.txt.gz
RH
51 55 56 54 57 56 64 62 72 60 59 53 57 65 68 70 72 71 70 70 72 74 75 69 65 58 53 52 51 53 55 59 64 69 75 75 80 84 82 88 93 91 86 82
56 55 58 58 57 62 60 59 62 59 57 56 61 67 72 72 75 73 71 75 73 70 67 65 60 61 63 62 61 57 53 58 69 74 77 85 89 87 91 94 93 89 82 76
64 67 69 61 58 58 58 56 59 65 61 63 67 66 65 65 68 68 73 76 74 70 67 60 63 67 64 68 71 57 58 60 65 68 74 83 84 94 93 92 89 81 67 57
79 81 83 53 55 55 58 57 60 65 67 67 65 66 69 73 76 79 77 74 68 66 65 66 68 65 71 68 65 65 71 82 84 78 84 88 94 93 87 79 67 58 53 49
84 88 75 59 56 57 60 64 65 73 69 69 72 70 69 77 81 82 76 72 72 63 62 65 68 64 64 67 70 79 79 86 88 82 91 94 90 82 71 62 57 54 49 42
86 92 85 62 62 65 70 75 71 72 76 80 82 80 79 83 82 82 69 70 62 57 55 54 54 61 65 66 66 75 79 83 84 90 90 85 75 67 60 58 54 49 42 37
88 88 79 64 64 67 79 76 77 80 83 84 89 90 88 83 73 72 69 60 51 45 44 49 49 57 67 70 73 78 85 88 90 88 79 69 63 60 58 53 47 41 38 34
89 93 85 70 74 80 79 77 82 83 84 86 89 85 82 73 67 61 51 45 44 43 46 53 63 63 70 69 77 83 91 91 88 80 70 64 59 55 50 45 40 40 39 35
83 84 77 80 80 79 82 82 81 87 90 93 91 79 77 70 63 52 48 44 45 47 49 62 70 74 73 77 85 91 93 91 86 73 63 56 49 44 41 40 43 44 45 40
91 84 77 84 82 86 88 86 94 95 93 89 83 77 72 64 57 49 43 45 53 58 61 65 68 73 83 88 93 93 92 84 67 55 46 41 42 42 41 45 49 53 52 47
92 85 81 79 78 91 90 96 97 92 89 76 73 68 67 58 52 47 49 57 63 64 61 58 63 74 82 88 91 87 71 57 46 41 41 43 41 47 53 59 63 63 59 57
87 81 83 76 91 90 92 88 86 82 67 65 64 61 60 55 52 50 54 54 57 58 52 59 71 80 82 81 73 60 47 42 40 41 40 42 51 57 70 76 77 71 66 62
85 81 82 86 88 84 97 88 71 72 65 56 54 57 61 55 55 52 49 52 54 55 62 70 74 77 75 66 50 44 41 37 36 38 47 56 61 73 76 79 78 73 67 65
81 81 86 85 92 92 75 62 53 54 60 62 66 60 58 56 52 47 45 47 52 61 67 76 77 73 59 44 42 40 40 37 38 49 57 62 73 77 76 76 74 74 69 65
74 71 68 65 62 56 55 52 51 61 63 64 65 59 51 46 42 42 46 48 59 70 76 78 70 56 41 39 41 40 41 40 50 56 60 72 76 79 81 81 81 76 65 73
58 57 58 58 58 55 59 66 67 65 65 64 63 50 46 44 44 46 53 52 65 77 80 71 57 39 39 40 40 40 42 51 56 60 70 74 79 86 86 83 80 74 72 80
56 62 67 67 72 69 69 67 66 57 62 63 62 55 42 41 43 50 58 61 75 82 75 63 42 37 35 33 34 40 51 55 61 70 72 74 80 87 85 83 81 81 81 81
74 80 85 78 59 46 45 48 52 60 62 64 55 44 42 47 52 57 60 71 82 81 70 48 34 30 30 37 43 48 54 59 64 70 74 79 85 90 85 83 85 91 81 83
70 56 52 57 61 64 63 56 48 48 48 50 50 46 47 51 58 62 66 81 86 76 58 35 31 30 39 45 48 50 53 59 64 71 77 83 89 91 84 83 86 89 80 83
56 56 57 56 53 50 46 44 44 44 44 48 47 48 49 55 63 68 77 91 82 66 42 32 32 36 41 46 48 52 54 60 65 73 79 86 90 91 84 84 87 86 80 81
57 56 54 44 39 38 40 42 42 43 44 51 58 58 60 68 73 80 95 89 74 56 39 35 36 37 41 45 47 54 59 62 66 72 79 86 91 91 85 82 87 87 81 81
45 41 38 39 40 37 35 40 48 56 60 64 67 70 76 79 86 97 96 86 70 50 40 38 36 39 42 44 45 52 62 64 69 71 76 84 89 91 88 83 85 92 86 83
40 40 40 40 43 45 45 50 58 62 67 75 79 81 83 94 98 97 91 78 62 49 42 39 38 41 43 48 49 49 58 66 70 73 75 80 88 91 90 86 82 91 94 81
43 42 43 45 48 52 54 55 62 68 76 76 79 95 98 98 97 94 85 72 56 45 42 42 41 43 46 50 46 47 57 67 73 76 78 78 82 89 90 87 85 85 85 81
46 50 53 54 57 62 66 65 65 74 72 79 94 97 98 97 95 90 80 66 54 48 43 44 45 47 50 51 45 50 57 66 76 77 82 82 81 84 90 87 85 86 82 79
53 55 56 63 77 77 75 74 74 74 77 92 96 97 96 94 93 86 77 65 55 52 47 46 47 49 50 47 50 53 60 71 75 79 79 83 84 84 88 92 87 87 85 83
56 58 57 69 86 83 80 80 79 77 82 95 97 95 93 92 87 81 73 66 59 55 54 52 48 48 51 53 53 59 66 70 72 75 78 80 83 87 89 93 94 89 89 90

GFSNGP_prec_cthk_018.txt.gz
RH
50 48 49 51 52 56 67 65 76 59 63 58 59 63 64 60 60 59 60 64 67 68 66 65 64 60 58 59 58 59 59 64 64 54 52 56 63 69 78 86 88 91 91 90
60 60 61 60 57 61 62 64 67 66 64 55 60 65 63 62 63 63 68 69 68 69 65 61 59 55 56 60 57 50 51 48 53 59 63 65 73 81 86 95 98 96 93 84
64 65 64 55 53 62 60 59 57 60 54 61 65 66 64 67 68 69 68 70 67 60 57 61 58 56 55 54 52 47 52 59 71 71 75 81 86 89 92 92 88 80 74 67
76 74 79 54 56 60 60 58 57 58 61 68 66 70 73 75 73 77 78 70 67 69 61 50 44 45 47 52 48 49 49 62 70 74 81 84 90 92 88 81 74 68 63 60
85 86 76 60 59 60 64 61 59 63 68 71 73 73 77 78 79 81 75 75 69 59 49 42 45 48 54 61 61 60 55 60 68 78 86 89 85 78 72 67 63 62 60 57
90 93 91 64 67 70 73 72 68 71 74 76 78 80 79 85 88 79 73 70 56 47 46 45 43 43 49 58 65 64 64 72 79 84 86 82 75 69 66 62 60 56 50 44
92 94 82 68 70 73 82 74 75 78 81 82 86 91 90 88 82 76 65 55 53 49 51 51 53 53 58 59 65 70 78 84 87 88 86 81 70 63 54 45 40 42 40 40
91 94 85 69 74 80 78 73 76 78 83 84 91 94 89 83 76 65 57 56 53 54 52 51 54 58 56 63 75 80 85 88 89 89 78 60 46 39 39 41 40 39 42 43
85 82 71 75 75 78 78 77 80 81 89 95 97 90 76 68 63 60 61 51 48 47 48 54 53 52 52 61 72 80 87 89 82 57 40 37 37 38 38 39 45 48 52 55
85 74 66 72 79 80 81 83 85 90 95 93 90 78 77 75 68 63 54 45 44 45 43 48 47 48 55 66 77 79 79 59 42 37 36 36 37 40 47 54 57 66 68 64
86 75 74 75 88 87 92 88 95 99 92 86 77 78 77 66 55 58 53 56 52 44 41 42 47 55 63 73 75 69 50 41 37 35 34 35 43 55 58 69 73 69 69 66
85 77 86 85 87 91 92 93 88 83 78 72 75 72 64 52 60 65 60 61 54 46 46 45 52 62 72 76 68 47 39 38 37 35 35 45 51 56 76 78 77 78 75 70
86 85 93 93 91 90 88 81 74 66 66 60 55 59 63 66 63 61 54 51 51 51 44 44 52 67 76 68 47 40 38 40 39 37 45 51 56 64 64 79 86 80 76 74
84 90 92 90 89 78 62 55 57 63 61 59 58 57 61 58 60 56 53 59 65 52 46 50 58 73 71 50 39 37 41 41 40 45 51 58 65 66 71 78 78 79 76 70
82 82 81 75 65 57 61 66 60 55 51 44 41 42 45 51 54 51 60 59 55 53 54 60 67 75 60 39 41 41 41 42 45 51 56 63 67 71 77 83 81 80 79 81
75 73 64 62 64 68 72 69 60 50 46 45 45 46 46 46 45 45 49 55 56 60 62 65 75 70 47 41 37 35 40 46 50 54 58 63 70 77 85 84 82 84 88 81
71 66 65 62 65 66 65 52 48 42 43 44 44 40 39 41 42 41 46 55 59 63 68 73 78 61 39 36 31 41 46 50 52 54 59 68 74 82 88 85 83 86 88 79
58 53 54 63 62 56 46 47 48 51 45 39 40 40 42 45 47 47 49 57 66 72 77 85 72 48 36 37 38 43 46 49 54 57 63 70 77 84 87 83 83 86 85 78
55 55 56 59 58 54 48 46 42 39 39 41 42 45 50 55 58 60 64 68 77 84 93 83 59 40 38 40 41 42 46 49 56 61 65 70 76 84 86 83 82 86 83 80
53 56 59 52 47 46 40 40 42 42 42 47 51 55 57 62 71 74 77 83 90 97 89 71 47 41 41 40 42 46 49 50 57 64 67 70 75 82 85 82 81 85 84 84
53 47 42 41 37 35 37 41 44 45 47 54 58 60 64 72 81 83 87 97 98 94 80 60 50 43 41 41 45 48 51 50 56 65 70 72 73 79 86 84 82 83 89 82
43 42 37 38 39 38 38 42 49 54 57 60 62 67 71 76 90 94 98 98 96 88 71 57 49 42 42 44 46 50 52 50 57 65 73 76 77 77 82 86 82 82 88 83
39 40 41 40 42 43 42 48 53 67 66 65 64 69 73 87 94 95 94 94 89 78 65 54 46 44 45 46 48 50 48 51 58 67 75 81 82 82 82 86 84 82 82 80
42 42 42 46 48 49 49 50 63 72 70 68 67 70 88 90 92 92 93 89 79 68 61 54 48 46 47 49 51 49 49 52 60 70 76 80 84 85 87 87 88 83 83 78
46 48 51 51 49 51 54 57 67 77 72 70 71 82 92 94 93 93 90 84 76 67 59 55 54 53 54 51 49 49 49 56 65 71 73 77 81 83 85 89 90 86 85 83
51 51 50 52 57 60 60 69 79 79 78 77 75 82 93 95 93 91 85 79 72 67 63 57 54 51 47 49 52 52 54 59 66 68 68 72 75 78 80 85 91 92 88 88
50 55 55 54 61 63 66 83 83 80 84 84 85 82 86 91 92 90 86 79 70 60 55 51 49 51 53 56 57 56 58 61 65 68 69 71 75 77 78 81 89 95 94 91

GFSNGP_prec_cthk_021.txt.gz
RH
51 49 52 52 55 58 64 64 73 57 59 54 56 59 60 62 63 64 65 65 68 65 60 56 55 49 44 40 41 43 46 43 43 46 49 53 57 65 72 77 80 85 89 89
58 56 57 56 53 57 64 65 69 67 65 59 58 63 64 64 64 66 70 71 70 65 61 59 52 46 42 41 43 46 45 50 54 55 64 69 74 72 80 84 85 81 80 76
57 60 61 56 54 61 63 64 64 65 57 60 64 65 64 66 68 69 75 76 75 69 64 57 51 43 42 45 45 47 49 50 54 56 65 69 77 81 85 80 74 71 69 65
73 70 72 48 58 62 65 60 61 61 60 62 65 67 68 72 77 79 80 79 70 68 65 59 52 44 42 44 44 47 49 50 56 63 70 75 81 81 77 73 68 66 63 60
81 82 71 59 59 62 67 60 61 62 65 66 69 71 73 81 84 86 84 77 75 68 63 53 47 41 38 45 52 52 57 58 64 71 79 83 85 82 69 59 48 41 38 38
88 92 85 64 64 67 67 66 65 69 73 75 80 86 80 86 90 85 75 75 72 66 59 52 50 44 42 48 51 59 63 69 71 78 84 84 72 47 36 35 36 37 37 38
87 90 79 69 71 70 80 75 77 81 84 83 85 84 87 92 83 79 77 72 70 67 59 56 51 45 44 44 49 55 63 72 74 79 73 46 37 34 33 34 35 36 41 48
92 91 85 72 76 80 75 74 83 89 89 86 86 86 90 83 81 76 71 65 71 64 59 52 48 47 41 42 44 52 61 70 74 59 41 36 33 32 34 36 42 48 51 61
88 80 74 78 80 80 80 85 85 90 92 93 94 89 83 75 78 67 60 73 70 58 55 55 55 54 50 53 52 58 68 72 54 41 38 35 33 34 41 47 52 61 64 65
86 74 79 78 82 83 87 92 91 96 94 97 90 86 75 72 70 70 69 62 57 60 56 58 54 54 61 56 55 62 72 58 40 41 39 35 35 44 48 56 62 63 70 73
82 79 81 82 85 89 87 96 96 95 90 84 74 66 65 66 66 56 55 54 53 51 46 50 51 57 60 56 58 72 66 43 41 43 40 37 44 51 58 64 65 68 76 77
86 84 91 85 92 86 93 93 87 82 74 64 58 53 50 45 45 47 48 46 45 50 47 47 52 59 55 58 63 73 46 41 42 44 41 44 48 56 65 68 73 79 78 78
87 86 89 97 87 94 87 74 71 65 64 55 54 52 51 46 44 41 38 39 44 47 51 50 55 59 61 63 70 59 41 42 45 46 45 50 54 56 59 73 85 77 78 79
83 90 88 90 94 81 74 67 66 65 62 61 56 51 43 38 37 38 36 40 42 43 46 57 61 64 69 67 73 44 43 40 42 48 52 53 56 61 68 75 78 77 81 84
88 86 92 87 77 71 66 58 54 59 61 60 57 50 40 38 36 35 38 42 43 43 49 59 68 72 71 74 65 42 40 39 45 52 54 56 61 65 72 79 78 75 82 83
87 84 81 74 64 57 53 56 55 53 52 51 46 36 34 35 36 38 42 48 51 50 57 66 76 79 81 81 47 37 40 43 49 53 56 61 64 66 72 79 75 75 82 82
80 67 57 53 50 46 46 49 50 46 40 35 32 32 33 36 39 45 49 57 67 69 71 78 85 90 89 63 39 41 44 44 51 53 58 64 65 68 71 76 75 76 81 80
62 60 54 46 46 49 48 45 40 34 34 33 34 34 37 43 51 55 62 71 81 84 87 90 97 94 74 47 40 42 43 46 52 54 58 65 68 69 71 75 73 75 81 79
56 50 47 49 51 45 37 33 34 35 35 38 40 42 49 56 62 65 73 81 87 90 96 98 96 81 55 46 44 42 44 49 54 54 58 67 71 71 72 74 74 74 79 79
50 47 46 41 35 35 35 36 37 36 38 43 47 52 54 57 63 67 81 90 93 98 97 94 82 64 53 44 43 43 47 52 55 53 58 68 73 76 76 75 76 73 77 81
44 38 34 35 33 34 36 38 40 40 41 47 55 61 60 59 64 74 86 91 93 93 92 86 70 60 51 43 45 48 50 53 52 53 59 69 75 79 80 80 79 74 75 81
34 35 35 36 37 34 36 39 42 43 47 50 62 70 64 62 71 86 87 88 92 93 87 74 63 54 49 45 45 47 52 50 49 52 60 71 76 78 82 83 83 79 75 77
36 37 37 39 40 39 37 42 45 50 51 60 71 75 69 67 81 88 88 91 91 86 75 64 57 53 50 47 49 53 49 49 50 57 66 70 72 75 78 82 84 85 79 77
37 40 42 43 44 45 45 45 49 53 57 75 83 82 76 74 83 91 92 92 85 75 67 62 56 55 55 56 53 47 51 51 55 58 64 68 69 70 72 76 81 86 85 81
46 44 46 47 47 50 52 52 54 56 64 81 82 83 82 81 83 92 93 90 81 71 66 64 61 57 50 47 48 52 54 55 57 58 62 68 69 70 72 74 77 82 89 86
47 50 52 54 57 58 57 61 61 58 71 79 81 83 85 86 85 82 88 88 84 77 67 58 55 52 51 53 54 57 58 58 60 61 61 68 72 72 73 74 75 79 87 92
53 60 61 62 67 67 67 67 67 66 71 81 82 83 88 91 92 90 90 88 88 78 65 57 55 58 59 59 60 60 58 58 59 61 65 70 74 74 74 75 76 78 83 92

GFSNGP_prec_cthk_024.txt.gz
RH
36 37 40 47 49 52 54 57 66 57 54 57 56 57 59 62 65 64 66 70 73 71 69 65 62 57 56 57 55 51 56 54 54 53 51 54 61 70 77 85 88 88 80 76
43 41 43 47 49 54 59 61 64 66 65 64 62 63 64 65 66 68 71 74 73 71 71 69 63 59 54 55 57 56 53 53 51 46 53 56 62 68 74 77 80 78 77 71
55 49 50 61 51 53 59 62 69 70 66 66 67 71 70 69 71 74 76 75 71 74 70 66 63 60 58 50 55 56 57 54 54 56 61 61 66 74 80 79 70 55 44 41
68 66 71 54 56 58 60 62 66 65 66 68 68 69 71 75 76 78 76 78 75 76 74 71 66 59 56 51 54 58 53 56 61 66 67 67 70 77 72 49 40 39 39 38
73 72 57 52 57 61 65 62 64 64 66 65 71 76 78 80 79 78 79 83 82 77 72 70 65 59 55 55 55 53 55 56 67 67 68 69 69 51 39 37 34 35 34 37
76 84 76 61 65 67 68 68 68 71 72 71 80 81 82 88 90 91 90 86 84 70 60 58 59 59 54 48 50 52 50 55 58 61 67 62 47 39 37 36 36 38 41 47
81 86 70 66 68 68 79 78 77 80 82 82 84 87 89 90 89 89 86 84 66 62 68 70 62 51 47 51 52 52 57 59 63 66 62 49 41 38 36 38 42 43 46 53
84 87 88 69 72 82 80 79 81 83 85 86 91 87 88 89 84 82 79 64 68 65 60 54 53 54 51 49 52 55 60 62 65 63 52 44 43 42 41 45 47 51 54 56
75 71 74 78 78 80 84 84 86 90 86 85 85 86 83 82 78 69 58 57 56 58 56 52 50 50 49 54 57 57 60 62 67 57 48 49 46 44 47 51 55 55 58 67
75 69 77 80 80 84 89 90 88 89 82 79 80 81 77 65 60 56 55 55 50 48 46 43 52 57 58 58 57 59 66 67 65 53 48 48 45 50 54 56 57 62 72 78
77 78 80 84 87 84 81 86 91 85 77 79 80 74 58 54 54 56 55 49 46 48 45 48 52 56 57 58 61 68 70 70 60 48 48 46 49 54 56 59 62 68 75 75
86 86 90 89 81 83 87 86 79 75 76 77 64 56 56 56 56 51 50 47 47 43 44 46 50 57 58 64 71 76 73 70 56 48 46 49 56 56 58 61 66 71 71 74
90 90 89 83 91 89 84 78 74 71 61 54 55 57 56 55 48 42 38 44 47 45 46 50 57 60 64 76 82 77 73 69 49 45 48 53 55 60 62 67 69 74 74 76
91 89 88 92 93 83 76 71 63 56 53 55 55 50 46 39 35 37 39 42 45 48 54 59 63 69 73 83 85 81 80 55 44 49 50 53 56 62 65 67 70 79 78 80
90 89 88 82 79 74 63 55 51 49 47 44 41 37 36 36 37 38 41 43 49 58 67 74 78 79 81 86 89 91 66 46 49 48 49 54 57 64 67 69 71 75 80 83
81 77 76 71 61 54 49 47 47 45 42 35 30 31 34 37 40 42 50 60 60 65 74 82 85 87 89 93 95 75 50 48 49 46 52 56 58 66 70 71 72 72 78 78
78 67 63 54 46 45 47 47 42 35 30 30 30 31 33 36 39 48 55 62 65 71 80 84 88 93 97 95 77 55 46 48 46 47 56 56 58 66 72 73 73 69 72 76
64 59 53 47 44 44 39 34 32 31 31 31 32 33 36 41 48 54 56 57 66 77 84 91 94 94 93 77 57 48 45 45 46 52 57 55 58 67 74 76 75 72 67 74
58 52 48 46 43 37 31 31 30 31 33 34 34 35 40 46 56 60 60 61 72 83 90 91 92 89 75 57 52 45 45 46 50 55 54 54 58 69 76 78 78 76 70 71
52 48 45 38 31 32 31 32 33 33 36 37 38 40 43 55 65 65 62 73 85 86 88 89 88 76 61 54 47 44 46 48 52 53 52 55 63 73 77 77 79 79 74 72
43 37 31 30 29 31 34 36 37 35 35 40 43 46 54 66 72 69 68 86 87 86 89 87 80 68 58 50 47 46 46 50 52 50 52 59 66 71 74 75 77 80 78 75
31 29 30 32 32 31 35 38 40 39 41 43 47 53 66 73 75 73 73 87 91 91 88 80 71 60 54 51 52 52 54 53 50 51 56 59 65 70 70 71 73 77 81 78
30 32 32 34 36 35 37 40 38 41 44 50 52 56 73 76 78 79 79 84 91 89 82 74 66 58 54 52 56 56 52 51 53 55 58 59 64 68 70 71 72 74 78 81
33 35 37 39 40 43 41 41 44 47 51 56 59 62 73 77 80 82 84 84 86 88 81 74 68 62 58 55 51 50 53 56 58 58 60 61 64 69 71 72 72 73 75 80
36 38 40 42 45 50 52 55 55 59 62 63 67 68 72 81 83 85 86 85 84 83 81 78 66 57 54 52 54 56 58 60 58 56 58 61 65 70 73 74 74 73 74 78
43 45 47 50 54 56 60 63 62 64 66 67 70 77 75 79 84 87 90 91 92 93 87 81 67 58 56 57 60 61 63 62 61 59 59 63 67 72 73 76 76 75 75 77
48 52 55 59 66 67 67 68 69 69 72 73 74 83 81 81 85 87 88 92 95 95 92 80 72 63 61 63 64 65 67 66 63 61 63 67 72 75 76 79 79 78 78 78

GFSNGP_prec_cthk_030.txt.gz
RH
26 23 27 30 29 32 38 45 56 56 59 62 66 70 68 71 68 66 66 68 69 72 71 72 72 69 71 71 68 66 64 64 62 57 54 51 48 48 49 50 53 57 60 58
28 26 30 29 29 37 42 48 50 58 58 60 67 66 66 67 65 66 69 69 71 69 65 65 67 71 71 65 61 62 57 57 60 62 57 56 53 53 54 57 60 60 52 49
43 38 36 51 44 39 43 52 58 64 63 64 66 66 70 65 66 69 68 69 67 65 65 66 69 68 64 61 60 58 57 58 67 70 67 56 50 58 59 61 62 53 48 49
51 48 51 33 35 39 44 51 56 59 62 70 71 71 70 69 72 74 71 72 68 68 67 69 68 64 62 69 67 63 58 58 57 55 53 51 58 63 64 66 57 51 48 50
55 50 37 37 45 47 51 55 59 66 70 71 72 69 73 77 74 71 67 64 65 64 62 58 59 66 68 67 68 67 62 70 69 82 68 63 62 67 71 66 60 49 51 51
55 60 54 42 47 54 52 61 70 72 75 76 75 79 75 67 62 61 61 62 58 58 57 61 63 60 58 57 54 57 63 84 71 86 92 84 71 75 77 75 59 51 52 54
55 61 53 46 52 53 62 75 77 80 80 80 78 79 70 65 62 62 60 57 53 51 52 51 47 39 38 41 49 51 54 91 80 70 93 89 72 82 80 78 56 53 53 53
56 64 64 53 61 74 73 78 82 83 82 81 76 70 67 66 62 59 50 44 43 40 37 36 34 37 43 47 50 49 57 58 90 88 95 83 81 84 89 63 55 52 53 53
54 53 55 69 74 79 82 85 89 85 82 79 73 67 66 61 55 48 42 39 35 34 30 28 34 46 51 49 54 53 54 68 84 84 80 86 91 89 73 53 52 53 55 57
51 48 59 69 77 82 84 86 87 85 81 72 68 66 59 51 45 42 40 37 39 31 30 35 40 42 44 50 54 57 65 79 85 83 86 88 86 78 51 51 53 55 60 61
45 54 70 79 84 83 85 87 84 80 73 69 64 57 50 44 42 38 35 33 29 32 37 37 41 43 50 56 58 66 69 75 75 84 87 89 81 50 49 52 56 58 62 64
60 69 73 82 80 81 79 76 73 69 67 62 56 48 43 41 38 35 31 30 34 34 33 34 44 50 55 59 68 71 73 72 76 81 88 79 49 50 48 54 54 59 63 65
72 76 78 80 79 78 75 72 71 67 59 53 46 43 40 37 33 30 29 29 31 32 34 40 52 57 61 66 73 83 84 83 86 85 68 47 47 46 49 53 52 57 63 65
78 81 82 83 81 77 75 73 63 58 51 47 43 39 35 33 31 28 28 29 30 31 37 47 57 58 65 74 82 85 83 84 80 62 48 48 46 48 54 51 53 61 66 67
85 85 83 81 80 76 72 66 58 51 46 43 40 37 32 30 26 26 28 30 29 37 48 54 55 59 69 80 82 82 84 74 59 47 46 47 48 51 54 53 58 63 68 69
88 84 81 78 73 68 66 61 53 48 44 40 36 31 28 25 25 26 29 32 38 46 51 55 56 70 77 81 81 81 72 61 51 47 46 47 49 56 53 57 61 65 68 71
89 82 78 75 70 69 63 54 49 44 37 35 31 26 25 25 25 28 31 35 45 51 55 59 66 76 79 80 82 74 64 56 50 46 46 48 54 53 57 60 62 64 67 68
82 78 74 71 72 63 55 49 41 37 34 29 26 26 27 28 29 30 35 40 44 51 59 62 68 79 80 80 75 66 57 53 48 45 47 50 54 55 59 61 62 63 65 67
75 75 73 69 60 51 44 37 35 31 27 27 27 28 31 33 34 36 42 47 51 54 61 62 67 78 83 79 68 62 58 53 50 50 51 55 50 59 60 60 62 63 65 67
75 70 63 54 45 39 35 32 29 28 28 30 32 34 35 39 44 48 49 54 58 60 64 65 65 67 73 71 65 60 58 56 53 53 54 52 57 60 60 60 62 62 63 67
66 56 50 42 36 33 31 29 29 28 30 35 39 42 42 44 50 52 55 60 65 67 68 69 68 66 67 72 69 64 59 59 56 51 51 54 58 60 60 60 63 65 65 66
51 45 40 36 33 30 29 30 30 30 33 40 49 53 54 53 53 54 64 70 71 74 75 76 76 73 72 72 72 66 58 55 56 54 57 62 63 62 61 61 64 67 67 67
42 36 34 32 31 29 29 32 35 40 45 51 54 59 61 60 59 62 65 73 77 81 80 81 79 81 81 82 76 64 57 56 58 59 58 61 61 63 64 66 68 70 70 69
34 32 30 29 29 31 34 39 45 52 55 56 58 63 67 62 62 75 74 77 80 83 82 84 84 85 90 89 85 72 60 59 62 63 63 65 67 68 68 72 75 75 75 72
28 28 29 31 36 40 45 50 54 59 59 59 65 67 70 73 77 74 75 79 80 81 84 88 89 90 90 94 93 78 68 63 65 67 68 70 72 73 73 75 77 80 81 77
29 32 35 40 48 56 60 66 65 61 65 67 70 75 74 81 81 75 73 78 80 81 84 87 89 90 91 92 94 89 74 70 69 71 74 76 78 77 79 81 83 84 83 85
35 40 50 60 66 70 70 69 65 65 72 76 74 79 80 81 81 77 75 77 80 83 86 88 90 93 95 97 97 97 89 78 77 78 81 85 85 83 85 86 88 88 89 88

GFSNGP_prec_cthk_033.txt.gz
RH
30 24 21 25 27 27 29 34 45 48 54 61 65 68 70 71 72 73 72 71 69 68 64 61 60 62 63 59 55 50 46 46 47 43 38 39 46 51 47 40 44 54 63 65
25 27 31 27 30 33 35 38 43 49 58 62 64 64 66 68 69 70 71 68 66 64 58 55 55 53 50 48 48 52 54 61 58 55 65 69 67 68 66 60 67 60 63 70
40 37 35 44 35 31 34 40 44 51 55 58 60 64 67 70 73 72 67 62 58 54 51 48 44 44 49 54 56 57 54 59 65 66 66 66 86 95 92 87 80 70 67 74
44 41 36 34 30 34 39 44 46 58 62 65 69 72 74 74 71 69 64 55 52 48 48 51 50 50 50 52 52 49 54 52 56 58 65 75 98 95 91 83 84 82 77 62
49 50 36 34 37 39 41 50 53 58 65 70 74 76 76 75 68 61 56 52 51 49 48 43 43 43 43 40 37 31 31 35 41 49 62 88 98 97 96 93 85 76 81 54
49 51 52 40 40 40 43 55 60 65 70 74 73 77 75 66 60 55 52 51 47 42 38 40 39 36 31 24 26 34 37 45 48 47 56 92 97 93 87 80 75 87 53 56
53 52 44 36 39 40 55 57 65 71 73 74 76 77 69 63 59 56 52 45 40 36 36 34 29 25 25 28 35 40 45 51 51 57 67 90 97 91 88 78 82 67 49 53
51 55 56 38 43 48 57 66 71 74 75 77 75 69 66 63 58 53 46 41 37 36 32 30 30 26 31 37 41 42 49 50 52 59 70 88 84 86 82 82 74 44 51 52
44 43 37 42 45 51 59 71 78 78 74 74 71 66 65 61 53 46 40 37 34 32 32 29 25 30 36 40 41 46 50 54 57 65 69 74 76 80 86 70 41 46 50 50
47 45 48 48 52 58 66 78 82 77 72 70 68 66 59 52 45 41 37 34 32 29 26 24 26 29 38 44 48 51 53 65 66 63 65 75 84 86 69 43 43 51 49 52
40 44 48 52 61 69 78 81 77 72 70 69 65 60 52 46 42 38 36 33 28 25 24 24 26 31 41 50 52 54 64 71 77 76 78 84 85 56 44 44 50 49 50 56
44 40 48 61 75 80 81 80 78 74 73 71 62 57 48 44 39 37 33 27 24 24 25 26 32 39 48 53 55 60 75 77 77 79 82 76 51 45 45 46 51 49 53 58
45 53 65 73 80 83 83 82 78 80 73 66 61 53 45 40 38 33 27 24 24 26 28 30 35 42 47 51 57 68 80 79 78 78 67 50 46 45 43 49 50 52 55 59
55 65 74 80 83 82 80 80 80 75 70 62 52 46 42 38 32 28 26 26 26 28 29 33 38 44 49 54 67 76 81 78 76 62 49 44 45 46 46 50 50 52 56 58
73 79 81 81 81 81 85 76 72 71 62 53 46 43 38 33 30 28 27 28 27 30 32 36 40 47 55 63 74 78 79 78 63 52 46 44 46 47 51 52 55 56 56 58
84 85 85 86 83 80 77 75 73 65 54 49 42 38 34 32 31 29 29 29 30 29 35 40 44 51 58 66 77 80 80 69 58 52 45 44 45 48 52 55 57 57 56 58
89 89 84 84 84 80 78 73 62 53 49 42 38 36 34 32 30 29 30 32 35 39 42 46 50 56 58 66 77 80 73 66 60 53 48 47 48 52 51 56 56 56 57 57
94 88 84 83 80 77 68 58 52 47 40 37 36 34 33 31 31 32 34 38 40 43 48 55 57 59 62 63 66 72 68 63 59 53 50 49 51 51 52 57 57 57 57 56
85 85 82 77 70 62 55 48 42 38 36 35 34 32 31 33 35 39 42 44 45 48 56 62 62 64 64 63 60 60 65 63 61 57 52 50 50 53 59 60 58 58 59 59
79 78 73 63 56 50 45 40 37 35 35 33 30 31 34 40 44 46 48 49 56 60 64 69 71 71 71 71 66 67 66 66 62 56 53 52 54 59 61 59 58 60 63 63
76 68 57 53 49 44 38 35 34 32 29 31 34 39 42 45 50 53 54 53 58 67 71 76 81 80 77 76 76 76 75 67 58 54 54 57 58 61 61 62 63 63 64 67
61 56 51 45 39 35 34 31 29 29 31 36 42 46 48 51 53 54 62 62 66 73 74 79 82 83 84 84 84 87 84 75 61 57 58 62 63 65 64 68 70 70 72 73
52 45 40 37 34 31 27 28 32 36 40 47 50 52 53 57 64 63 58 69 74 73 78 80 82 86 88 88 90 91 93 87 71 59 60 63 64 65 67 69 71 76 78 79
42 36 33 30 28 28 29 32 39 48 53 56 59 61 64 63 65 74 74 75 76 72 73 79 82 86 88 90 90 90 92 93 80 71 62 65 67 69 72 74 74 77 82 84
30 27 27 29 31 33 39 47 54 63 69 68 66 64 69 75 76 75 77 76 78 77 76 79 83 88 90 92 94 94 95 95 94 81 73 70 73 75 77 79 80 82 85 87
28 29 31 35 41 50 60 67 73 73 67 60 63 68 69 75 79 79 79 78 77 77 79 83 88 92 94 96 97 97 98 98 99 98 90 83 84 86 88 87 86 88 89 91
35 41 46 51 58 65 72 77 76 70 68 71 65 73 78 80 82 83 81 79 78 78 81 84 89 93 96 97 97 97 96 99 99 98 98 96 94 95 96 95 93 92 92 92

GFSNGP_prec_cthk_036.txt.gz
RH
30 28 25 23 24 26 26 28 37 38 44 49 53 59 63 67 70 70 70 70 70 70 66 62 53 46 45 44 41 43 45 50 49 48 49 54 59 64 67 77 75 94 94 85
28 31 28 25 26 30 30 30 37 45 52 54 58 61 66 70 72 74 73 72 66 60 56 50 49 47 41 39 41 48 50 51 56 49 49 48 51 66 57 70 91 91 86 87
30 35 32 35 30 29 30 34 36 42 48 54 59 65 71 74 75 73 69 64 60 55 52 50 44 38 39 41 44 44 42 40 36 33 35 43 52 51 56 87 97 96 94 84
35 34 27 29 27 28 35 39 41 48 55 61 65 70 74 74 71 68 66 62 57 54 48 42 37 36 39 40 38 32 25 25 26 31 40 48 52 49 71 98 97 97 88 85
38 44 30 28 30 32 35 41 46 50 57 62 66 72 75 73 70 70 65 59 55 49 43 39 37 37 35 31 26 23 24 28 35 41 42 42 49 59 69 83 88 88 87 78
49 37 37 29 30 33 35 43 45 51 59 66 70 74 74 69 68 64 59 54 48 42 39 39 38 35 29 28 26 26 29 36 43 44 43 49 57 70 74 77 85 85 80 76
51 50 39 30 33 37 46 39 46 53 60 66 72 72 71 68 64 60 55 48 44 42 40 37 32 30 28 29 30 30 32 41 45 45 53 56 63 65 66 75 82 85 67 47
51 53 47 31 36 39 33 37 48 55 61 70 73 71 66 65 64 59 52 48 43 39 34 32 30 28 27 28 29 31 39 46 48 53 63 62 60 70 78 82 82 57 47 50
40 39 31 33 36 37 41 49 56 62 69 72 75 73 70 67 64 57 52 45 39 34 32 29 28 26 25 27 33 39 46 50 53 62 71 75 73 78 82 78 52 47 48 47
42 36 37 41 44 46 51 56 63 72 73 72 72 72 70 68 61 53 48 41 36 33 30 28 26 25 28 30 38 46 49 55 58 69 77 77 79 83 77 51 47 46 48 47
43 44 45 48 49 50 55 64 73 75 73 74 74 72 71 62 56 51 43 38 34 32 29 27 26 25 27 31 41 48 52 58 64 77 79 79 81 71 49 46 45 47 49 50
41 38 42 45 50 57 67 72 73 75 75 73 76 72 64 58 51 44 39 36 34 30 28 26 25 26 29 35 41 48 55 65 74 81 81 76 61 52 48 47 46 51 52 52
41 44 47 52 62 71 76 78 79 80 80 79 72 67 60 51 44 40 38 35 32 30 28 26 25 29 33 38 44 51 61 72 78 81 79 61 49 45 44 45 50 54 55 54
49 55 64 70 76 81 84 83 83 82 79 75 71 63 50 44 41 39 35 34 32 29 27 28 29 35 39 43 49 53 63 77 81 79 64 54 46 44 42 45 50 56 57 54
64 67 72 78 81 86 88 87 83 81 78 75 63 53 46 41 38 35 36 33 30 28 30 32 36 41 44 48 53 57 63 76 80 76 61 56 48 47 45 50 53 57 57 54
71 75 78 81 86 89 87 84 82 80 77 61 53 47 42 39 38 37 34 31 29 29 33 36 43 47 51 55 59 62 62 66 73 67 61 57 53 51 50 52 54 58 59 56
80 84 85 85 88 86 86 83 81 70 60 52 45 42 41 39 36 32 29 29 35 39 39 44 48 52 57 59 62 64 59 59 65 65 60 56 54 53 52 51 57 60 59 58
92 93 92 95 90 85 80 71 62 56 48 44 43 42 40 35 31 30 31 36 39 42 46 50 54 57 63 66 66 63 59 57 62 64 63 59 54 52 51 54 62 62 60 61
92 90 83 82 79 71 62 58 52 46 44 42 41 38 34 34 37 37 38 41 45 44 47 53 59 66 71 75 74 70 68 65 67 66 65 59 56 54 56 58 62 62 62 64
83 81 79 73 65 62 56 49 45 43 40 38 35 33 36 41 43 44 45 47 54 52 54 59 67 70 78 79 78 76 76 79 77 73 66 57 55 55 59 61 63 64 67 68
80 79 71 63 58 50 46 44 43 38 36 36 36 38 41 45 49 49 50 51 58 61 63 69 71 75 77 80 83 83 84 87 90 87 73 62 62 61 63 65 67 69 71 74
73 65 58 51 45 43 42 38 36 36 35 36 41 44 47 50 51 51 56 62 62 66 67 72 71 71 76 81 84 86 87 89 89 92 89 73 62 63 66 66 67 71 73 75
63 55 48 45 42 38 35 35 36 37 38 44 50 56 60 57 55 53 48 60 67 70 71 73 75 75 77 80 83 87 90 92 92 93 93 85 76 67 68 69 71 74 76 77
50 46 42 39 37 37 35 33 37 43 49 57 60 66 63 55 55 65 62 64 69 71 71 72 74 76 80 84 89 92 94 94 96 98 98 98 89 77 75 76 79 83 83 84
38 37 38 37 34 34 38 42 47 55 59 63 64 63 63 70 65 67 72 74 74 73 72 72 75 79 83 87 90 94 97 98 98 99 99 99 98 97 90 89 88 91 90 89
37 36 37 41 45 47 49 53 55 61 66 68 67 68 67 69 68 72 81 88 84 81 77 75 75 75 77 80 84 88 94 94 93 93 93 94 97 98 98 98 97 98 96 95
36 38 39 39 40 45 51 55 61 68 69 69 68 69 68 72 73 76 85 89 90 86 79 74 71 69 68 69 71 73 74 74 77 82 88 93 93 94 97 99 99 99 99 99

GFSNGP_prec_cthk_039.txt.gz
RH
31 30 25 22 22 24 25 27 32 28 34 36 43 49 55 58 61 65 69 71 71 73 72 70 67 61 55 50 46 41 39 39 40 39 36 33 36 43 46 47 49 46 70 80
33 34 33 27 22 25 27 27 28 36 41 41 47 53 57 61 64 68 70 71 72 72 72 67 59 52 48 42 39 37 36 32 28 28 28 28 31 34 36 39 47 54 86 85
31 39 31 26 23 26 26 28 30 42 37 44 50 54 59 63 65 67 69 70 71 70 66 59 52 47 40 39 37 35 29 29 30 29 32 34 34 33 39 49 58 65 83 90
34 34 30 20 24 25 28 31 32 35 39 44 50 55 61 65 66 66 66 67 65 61 57 52 48 43 40 39 35 30 29 29 29 31 32 33 32 38 45 55 64 67 72 78
38 39 26 22 27 31 30 31 35 38 43 47 53 60 64 69 68 67 69 65 61 56 54 50 48 45 39 34 32 29 28 29 31 33 37 36 36 47 49 56 59 63 68 73
48 34 31 20 26 27 30 38 34 37 41 50 56 63 66 70 68 70 67 64 61 58 55 51 46 38 34 30 28 26 28 32 37 41 42 41 45 56 56 61 67 72 77 73
51 43 34 23 29 31 42 31 32 34 42 50 56 62 69 71 73 73 71 65 60 57 51 45 38 33 30 27 25 27 33 37 40 44 47 47 55 66 73 70 77 77 71 50
50 51 40 26 33 36 32 31 35 39 47 55 61 70 70 72 74 71 66 63 59 52 47 38 34 31 28 27 27 29 33 37 43 46 50 54 66 78 79 81 82 73 51 47
37 37 29 31 32 32 34 36 41 48 57 62 67 72 73 76 73 69 66 62 56 49 40 36 32 30 29 29 29 29 32 37 43 47 53 61 72 79 81 84 78 52 47 46
38 32 34 36 37 38 41 45 51 56 60 65 74 75 76 75 74 70 64 58 51 43 38 34 32 31 31 28 29 31 33 38 44 52 63 71 79 83 82 72 53 49 46 49
42 38 41 40 40 43 48 53 55 61 67 75 74 77 77 77 71 65 61 53 46 41 37 34 33 31 29 27 30 32 35 41 49 59 71 77 82 83 65 55 50 46 46 54
40 34 37 39 42 48 51 57 66 70 79 79 78 78 78 72 69 63 53 48 43 38 36 34 32 28 27 29 33 36 39 45 53 62 75 81 81 68 55 50 48 46 49 56
40 42 44 45 48 56 66 73 75 80 78 81 82 80 76 73 63 54 50 44 39 37 35 33 30 29 30 34 37 41 45 52 59 64 74 79 70 62 53 53 50 49 52 57
48 50 53 59 66 72 75 76 80 81 82 84 83 80 78 65 54 50 44 42 39 36 33 30 28 30 35 39 42 45 50 58 64 65 65 71 67 60 54 51 50 50 53 57
55 57 61 67 72 74 78 86 85 85 87 84 82 79 65 56 50 46 44 40 37 32 30 30 32 36 40 44 47 52 57 61 61 61 63 67 66 61 56 54 53 49 52 58
63 69 76 79 86 88 90 89 86 85 82 80 77 62 55 49 46 44 41 38 33 30 34 35 38 42 45 48 53 58 62 63 60 59 57 62 65 61 57 56 54 51 52 58
78 82 85 88 92 95 93 89 85 81 79 66 59 53 47 44 43 41 37 36 36 37 38 38 41 46 50 54 59 65 67 68 66 64 61 60 64 65 61 56 52 51 55 61
85 89 93 96 94 90 86 81 76 65 61 56 50 46 43 42 39 39 39 37 37 39 43 45 48 51 56 60 66 71 75 73 71 70 69 67 64 64 60 59 55 56 59 61
90 91 87 82 81 79 72 66 64 58 53 49 44 43 40 37 40 41 39 41 41 42 46 51 56 58 61 65 70 74 78 80 79 80 82 81 73 64 57 58 59 61 63 63
81 79 81 80 76 72 67 60 55 50 45 43 40 37 39 40 41 43 48 50 55 52 51 56 62 65 68 70 71 74 79 81 81 84 88 89 90 77 63 58 60 63 66 68
83 81 77 74 68 60 55 52 47 44 39 38 38 39 39 42 49 54 56 54 55 55 58 63 70 73 72 75 77 80 82 84 85 86 89 90 91 91 79 68 64 65 67 70
79 75 69 62 57 51 46 43 42 39 38 39 38 38 45 50 56 56 59 57 54 55 60 64 70 77 77 77 77 79 83 87 91 94 95 96 97 98 93 82 73 69 69 72
77 69 60 50 45 43 42 39 39 39 37 39 41 47 55 57 59 56 49 54 55 58 64 70 75 76 78 80 81 82 84 88 92 95 98 99 99 99 99 98 86 80 78 79
62 51 47 47 45 42 41 38 38 39 42 46 51 56 62 63 60 69 66 61 60 63 69 77 82 82 79 79 80 82 85 88 92 94 97 98 98 96 95 94 95 95 92 90
45 43 43 42 38 36 37 37 37 39 43 45 51 56 61 65 66 63 65 62 65 72 73 78 83 83 79 77 77 76 75 77 83 89 92 95 95 94 94 94 93 94 96 98
32 33 34 37 39 39 38 38 39 39 45 46 54 60 66 63 61 64 65 69 76 78 80 77 81 82 76 69 66 64 62 63 67 68 75 79 85 91 91 92 94 95 95 98
33 35 34 35 34 32 31 32 33 30 31 45 47 51 63 61 63 70 75 78 79 83 84 80 82 79 72 67 61 57 56 56 59 60 67 71 76 85 91 92 95 96 96 97

GFSNGP_prec_cthk_042.txt.gz
RH
36 35 28 23 23 24 23 24 28 23 28 26 32 39 44 48 53 57 59 62 63 64 66 71 71 66 61 55 52 51 48 43 36 32 32 30 29 29 28 31 35 40 44 49
35 37 34 29 26 27 25 23 26 27 27 28 33 38 44 48 53 57 60 62 64 66 70 67 63 59 54 53 52 49 42 35 33 32 30 32 32 31 32 33 38 42 46 55
38 38 32 31 25 27 25 22 25 31 26 32 36 40 43 48 53 57 60 64 68 70 65 62 60 57 56 54 50 41 35 34 32 30 32 33 35 34 33 34 42 44 52 56
35 31 27 18 21 23 22 24 26 28 29 32 35 41 45 49 55 57 63 68 70 68 64 63 60 56 55 49 41 36 33 32 31 32 34 36 36 36 35 40 48 45 56 62
38 37 23 17 23 26 26 24 28 30 33 36 39 42 45 52 57 61 67 71 69 67 66 62 59 57 50 42 37 35 33 29 31 34 34 35 37 40 43 48 60 65 66 72
49 35 30 19 22 24 25 33 26 31 36 36 40 47 45 53 60 65 67 66 69 69 67 63 59 51 44 41 38 33 29 28 29 32 35 37 41 44 49 59 71 77 79 80
54 43 32 22 25 27 36 30 29 30 34 38 40 42 47 53 63 68 66 70 73 72 68 61 55 47 43 39 33 29 28 27 30 31 36 41 46 50 56 69 77 82 82 72
53 52 40 25 30 32 30 29 30 34 36 39 45 51 56 62 67 71 72 76 77 71 64 58 49 45 41 35 31 29 27 28 30 31 37 43 49 59 67 74 83 83 75 53
40 37 28 28 30 31 34 36 35 38 42 48 55 59 66 72 80 77 78 79 73 67 61 52 47 43 37 34 31 28 28 28 29 32 39 46 55 66 73 79 86 72 55 49
38 30 32 34 35 37 39 41 42 45 51 58 63 69 77 83 77 78 81 75 69 62 53 49 45 40 37 33 30 30 29 30 33 37 44 49 59 70 78 82 72 59 54 49
41 37 38 37 37 38 40 43 47 53 61 68 73 78 88 81 81 82 76 73 62 54 52 47 42 39 36 33 32 30 31 35 37 42 49 55 63 72 77 72 64 57 55 50
42 36 37 37 38 41 45 50 56 63 72 77 82 83 82 83 82 79 74 62 57 53 47 42 39 36 34 33 33 33 34 38 42 48 54 59 61 62 63 63 59 58 55 51
43 44 45 47 49 51 56 62 71 76 75 87 81 88 85 85 84 76 64 59 53 47 42 40 36 32 34 33 35 37 40 44 49 54 59 58 54 56 59 63 64 60 58 55
52 54 55 57 59 61 65 72 77 78 81 89 91 86 86 83 74 64 58 52 46 42 40 37 34 34 34 37 38 41 44 49 53 56 59 58 58 57 58 61 63 60 61 57
58 58 58 60 65 71 77 81 84 89 95 93 87 85 81 71 63 57 52 45 42 42 39 36 36 33 34 39 42 45 49 55 58 60 60 59 58 56 58 62 66 63 60 59
62 65 70 76 80 81 83 90 95 96 92 87 85 79 68 62 54 50 44 43 43 40 40 37 36 37 41 45 48 51 57 61 64 66 66 64 63 63 60 62 65 65 60 59
78 80 83 84 87 91 94 92 90 87 85 78 69 64 57 52 49 44 43 44 43 44 42 39 39 43 47 52 55 57 64 69 70 73 71 72 75 75 71 66 62 60 60 59
86 88 91 93 94 90 86 84 79 71 68 64 58 53 49 45 43 44 45 45 44 44 48 46 46 47 52 58 65 67 71 71 77 80 81 80 82 84 84 77 67 58 58 60
90 87 84 83 81 80 77 72 69 64 59 54 49 45 44 44 45 43 44 43 45 42 42 45 51 55 57 63 69 73 77 78 80 84 86 84 86 91 90 91 83 69 62 61
82 82 82 79 76 71 67 65 60 53 50 49 47 44 43 41 41 41 41 42 51 53 48 47 52 55 60 65 71 76 81 80 82 84 88 90 93 96 97 97 95 84 73 66
82 81 78 74 69 66 61 56 52 50 48 45 41 39 38 35 38 44 45 47 50 55 56 58 56 55 58 67 74 78 84 85 85 87 89 92 96 98 99 99 99 98 91 78
80 78 76 71 64 56 51 48 45 42 39 38 35 34 35 36 43 48 52 61 58 60 58 60 63 61 63 70 77 82 86 86 88 90 91 94 95 96 97 98 98 98 98 96
78 74 67 58 49 45 41 39 38 36 32 32 33 36 41 44 48 57 53 56 58 55 56 60 63 67 69 71 78 86 87 86 85 86 89 92 94 95 96 98 98 98 96 95
69 60 49 41 38 36 31 29 30 32 33 33 36 42 49 50 48 58 61 67 65 60 61 69 73 75 76 76 77 83 83 80 78 74 73 75 80 87 93 95 95 96 98 98
46 39 36 32 32 32 33 32 28 25 23 23 25 28 32 43 46 58 60 66 66 63 69 73 75 76 78 79 78 80 76 69 66 62 61 61 62 65 72 78 86 92 94 95
35 34 34 34 34 34 33 29 26 27 29 29 26 30 32 37 47 52 54 61 64 73 76 75 77 77 79 81 81 78 74 67 60 61 63 63 62 64 69 74 79 85 92 95
37 37 37 37 38 36 32 31 32 32 34 36 35 35 39 42 46 48 52 61 70 75 79 82 84 85 84 84 83 81 77 70 66 64 64 65 66 67 71 75 82 87 93 95

GFSNGP_prec_cthk_045.txt.gz
RH
38 38 34 28 26 29 26 24 27 20 21 20 23 26 32 38 42 45 51 55 58 61 62 63 72 75 65 63 56 55 50 45 44 41 39 37 34 31 30 30 29 30 31 36
38 38 35 32 28 26 26 25 25 24 21 19 24 29 35 40 43 46 50 52 56 59 63 68 65 64 65 62 59 52 48 47 43 40 38 33 32 33 32 32 32 33 36 41
38 37 33 33 26 26 26 25 23 25 18 24 29 30 33 38 41 46 50 53 57 60 61 63 66 67 65 63 57 53 48 43 39 37 34 34 34 33 33 34 34 38 44 51
38 34 30 20 21 20 22 22 22 23 24 27 30 33 35 38 42 47 50 54 57 63 64 61 64 65 64 58 54 49 44 40 37 33 32 33 33 34 35 35 38 45 55 65
42 34 25 19 21 24 24 20 20 22 28 33 35 37 37 40 45 48 51 55 59 60 62 65 67 65 61 56 50 45 43 39 34 31 31 31 32 32 34 36 44 53 64 73
48 36 34 21 22 25 25 28 22 25 31 35 35 41 33 40 45 49 53 57 61 67 69 69 68 65 59 53 48 46 41 36 32 30 28 32 30 31 35 42 52 61 70 80
53 48 37 27 28 28 32 26 26 27 30 35 36 37 38 43 50 55 62 65 70 73 72 71 67 62 56 51 48 42 37 33 31 28 31 30 29 34 39 48 58 69 75 83
54 52 45 28 31 33 29 28 29 32 34 36 38 42 46 53 57 63 69 73 75 75 75 69 65 58 54 50 43 38 34 32 29 31 29 28 33 38 45 53 64 75 80 74
40 36 30 29 30 31 33 35 37 40 42 45 48 52 57 61 67 74 81 75 80 80 74 67 60 57 50 45 40 36 34 30 32 31 29 33 37 43 50 58 69 77 71 64
37 31 32 32 33 34 38 41 42 44 46 50 56 61 67 70 78 81 78 83 81 77 68 63 57 50 47 42 38 35 32 33 34 31 33 38 41 49 56 61 65 66 64 58
38 36 37 35 38 39 40 42 44 47 53 57 65 72 74 84 87 82 86 86 78 71 63 55 50 47 42 39 37 35 35 37 35 34 38 43 47 51 52 51 54 58 61 57
44 39 40 41 43 45 47 51 54 59 64 68 72 79 86 88 88 92 87 79 69 61 54 50 47 42 40 39 38 39 40 37 38 40 45 48 52 52 51 49 50 54 59 57
45 49 51 53 54 56 59 62 64 67 68 76 83 90 92 90 93 85 79 69 60 54 51 48 43 41 40 40 39 41 38 39 42 46 50 53 55 55 54 54 52 55 60 61
56 58 60 62 64 64 65 68 70 76 83 91 96 94 93 89 84 76 66 60 54 50 48 45 43 43 42 41 41 40 41 44 49 54 56 58 58 59 59 60 58 60 64 65
63 63 64 65 67 71 76 82 86 92 96 95 92 89 87 80 69 63 56 51 49 48 47 46 45 44 43 40 38 42 46 50 55 60 64 65 63 64 65 65 65 64 60 61
68 68 70 75 80 84 87 92 96 96 92 88 84 81 71 64 57 52 50 50 47 47 48 47 46 44 37 41 42 46 51 57 62 67 72 74 75 73 74 75 73 72 69 61
74 82 86 89 92 94 93 91 88 85 81 78 72 65 58 54 50 49 48 46 46 45 46 44 41 41 39 44 48 49 54 61 70 73 76 80 81 84 80 82 85 84 77 69
89 92 92 91 89 87 86 82 76 72 67 62 58 54 52 50 48 45 44 43 41 40 44 44 46 45 45 47 50 52 57 63 71 78 84 86 86 88 89 90 93 93 93 83
89 87 84 82 80 76 74 71 65 58 55 53 51 50 47 44 42 39 37 36 37 38 41 47 48 50 52 54 56 59 64 66 71 76 85 88 88 89 90 93 96 96 97 97
84 83 80 76 72 66 62 59 56 54 53 50 45 41 35 34 32 30 33 33 41 48 47 49 50 51 52 55 59 62 67 70 75 80 85 89 91 92 92 93 95 96 97 98
79 77 74 71 67 63 59 56 53 48 44 39 37 34 29 27 30 35 37 40 39 49 54 54 56 56 50 53 59 65 70 72 76 83 88 91 92 93 92 93 93 94 96 98
77 76 74 70 64 58 51 48 43 38 35 31 30 31 31 29 32 35 39 45 46 57 61 60 65 64 60 62 66 70 75 76 77 84 89 91 90 91 91 92 93 95 96 98
81 75 69 63 53 48 41 37 33 30 27 26 26 25 24 23 25 31 34 39 49 50 62 63 64 66 63 68 70 71 73 77 78 79 82 81 76 73 73 76 80 85 90 93
76 69 58 49 40 37 32 30 29 30 29 26 24 25 28 27 22 27 32 39 43 54 71 65 67 68 71 75 75 75 77 77 77 75 71 71 67 63 65 67 67 71 73 78
67 51 41 38 34 35 35 33 32 29 25 24 24 24 25 26 33 29 34 40 44 54 64 64 66 70 76 79 80 83 81 79 78 76 75 72 66 66 69 69 71 72 72 74
48 42 40 40 39 37 35 33 28 26 25 23 22 21 20 22 27 35 41 44 49 53 59 67 73 78 79 78 82 88 86 84 83 82 79 77 74 72 71 72 74 74 74 76
46 45 42 41 39 38 36 30 28 28 25 23 20 20 19 21 25 31 42 46 54 63 69 71 79 79 80 82 86 90 89 88 89 86 84 80 78 76 71 71 73 74 76 78

GFSNGP_prec_cthk_048.txt.gz
RH
35 35 34 31 30 29 28 24 25 17 17 16 20 20 23 28 32 36 41 46 48 52 57 59 59 59 73 65 59 63 59 56 55 57 53 49 45 43 41 38 38 36 35 35
36 35 34 33 29 26 26 23 22 21 20 20 21 20 25 29 33 36 40 43 46 52 56 57 59 66 61 65 58 56 54 55 57 54 50 47 43 40 38 42 41 41 42 43
35 34 32 38 27 25 24 24 23 24 21 23 23 23 27 30 33 36 40 43 48 52 53 58 59 62 60 61 59 55 57 59 55 51 46 43 39 39 43 41 41 42 42 47
40 36 50 21 22 22 23 22 21 21 21 22 24 27 29 32 35 37 41 44 49 52 54 58 60 64 68 63 59 57 58 54 52 49 43 42 39 42 42 40 41 37 42 52
53 34 27 22 22 22 22 18 18 18 21 25 27 31 32 32 36 40 44 48 51 54 57 59 67 71 65 62 61 61 58 56 51 45 44 40 41 44 42 40 41 42 46 56
52 57 59 25 27 28 27 27 22 22 25 30 32 34 30 34 39 44 47 50 53 58 62 71 72 67 64 66 63 61 58 50 47 46 42 40 39 40 41 40 40 45 52 61
53 61 39 31 30 29 31 27 25 25 28 31 34 36 37 41 45 49 53 55 61 67 73 77 74 70 70 67 63 58 52 48 46 42 40 39 34 37 39 38 40 48 53 63
55 61 53 28 30 32 30 28 29 32 35 38 42 45 47 50 53 56 60 67 69 78 79 81 77 70 68 63 59 54 48 45 41 42 41 39 38 39 39 43 46 52 58 66
37 36 30 29 30 31 32 33 35 38 41 45 48 50 53 57 62 68 73 74 83 87 84 78 71 66 61 59 52 47 43 42 44 42 41 41 37 36 41 47 51 55 57 60
35 31 30 31 32 33 35 38 40 43 45 48 51 56 61 64 66 75 81 86 92 87 82 72 63 59 57 51 48 45 46 45 39 38 41 38 38 41 45 52 53 53 52 57
34 32 34 34 37 40 41 43 46 48 51 56 62 65 66 68 77 86 93 95 91 82 72 63 61 59 53 49 46 46 46 43 41 41 38 38 42 47 54 54 53 50 49 53
41 37 39 42 45 47 51 54 56 58 61 64 67 68 74 84 92 94 92 88 81 72 65 65 58 52 49 46 47 46 44 42 41 38 40 44 48 51 54 52 52 53 52 52
43 46 50 53 56 58 60 62 64 65 66 69 76 86 94 96 96 94 88 79 68 63 59 53 50 48 47 45 41 39 41 41 38 40 46 50 54 58 59 61 57 58 58 58
53 57 60 62 64 64 65 66 70 74 82 90 94 93 93 91 86 80 70 63 59 56 51 50 47 46 46 45 42 40 36 38 42 46 51 57 63 65 64 65 65 67 65 64
62 63 65 66 67 69 74 77 83 90 93 92 90 88 85 82 75 66 60 57 53 49 47 46 44 42 43 41 37 38 40 43 47 50 55 63 70 74 75 75 74 75 76 73
67 69 70 72 76 82 86 92 92 90 89 87 82 80 75 64 59 56 51 48 43 42 42 41 39 38 37 39 41 44 46 48 53 55 58 63 71 79 83 87 88 85 86 88
74 79 83 85 86 88 87 85 86 87 82 77 72 64 59 55 49 46 42 41 37 34 33 32 32 37 40 42 44 48 50 53 59 61 64 69 74 81 89 92 92 92 92 94
85 89 91 91 88 86 83 79 74 70 66 61 57 54 49 45 42 40 35 32 29 27 29 33 38 41 44 47 46 47 48 51 56 65 68 73 78 83 87 94 96 93 94 96
88 90 89 84 80 76 71 67 63 59 56 52 50 46 43 40 35 32 29 27 28 29 29 37 42 47 51 56 53 52 52 56 59 64 70 75 77 85 89 93 96 96 96 96
87 83 80 76 70 66 64 60 56 53 51 48 43 40 35 32 28 26 28 27 31 35 40 45 47 52 59 61 58 61 63 62 64 72 77 81 81 84 91 96 96 96 96 96
82 77 74 72 68 65 62 57 52 48 44 41 34 30 26 22 21 22 23 26 25 32 36 40 49 58 62 62 69 64 66 64 67 70 78 83 86 87 89 94 97 97 95 96
75 75 73 70 65 59 53 48 44 41 34 31 28 26 23 23 22 24 28 31 29 29 31 35 43 49 52 76 82 77 64 69 72 73 78 81 86 87 85 84 82 80 82 83
79 72 68 64 58 51 45 41 34 31 30 30 28 25 23 23 30 30 24 25 28 33 35 37 42 48 57 76 78 72 58 70 76 79 79 79 79 77 76 77 75 71 71 73
72 71 70 60 47 36 34 34 34 34 30 29 27 26 27 26 24 30 30 27 27 34 36 40 45 49 58 69 71 68 69 75 78 82 83 81 80 80 80 77 71 71 75 79
70 59 49 40 35 39 38 38 35 32 31 32 34 33 30 32 29 20 24 26 28 33 40 44 52 58 64 69 73 78 78 79 82 85 87 86 84 84 84 81 82 82 78 79
54 49 44 42 44 44 42 39 38 38 36 34 33 32 30 28 27 27 26 27 29 35 43 49 58 67 69 73 79 79 80 83 88 90 90 88 87 87 86 81 79 79 76 76
52 47 49 50 49 47 47 46 42 38 35 33 28 24 27 28 28 29 31 34 38 42 48 55 60 69 75 80 80 82 84 87 89 90 90 89 87 89 84 79 75 73 77 78